Content
SEND FEEDBACK

Daily
Averages
Monthly
Summary
United States of America

MARTINSBURG, PENNSYLVANIA


Home > North America > United States > Pennsylvania
Elevation: 1476 feet     Latitude: 40 18N     Longitude: 078 19W

WEATHER
 
SELECT A DAY
Number of Records: 136,823;   Date Range: 1/1/95 - 10/29/14
 
SHARE

PRINT THIS DATA

[ ← Previous Day ]
WEATHER ALMANAC - FEBRUARY 13, 2013
[ Next Day → ]
[ °C ]   °F
Weather ElementAverageHighLow
Temperature31.1 °F37 °F (1:53 pm)24.1 °F (3:53 am)
Dewpoint28.1 °F30.2 °F (4:51 pm)19.9 °F (5:53 am)
Humidity89.2 %100 % (8:29 pm)67 % (1:53 pm)
Barometer29.74 in29.93 in (1:53 am)29.65 in (4:18 pm)
Wind Speed1.3 mph6.9 mph (4:02 pm)
Weather ElementAverage
Visibility2.8 mi
Wind DirectionNNE (24.2 °)

Weather ElementTotal
Precipitation0.39 in
Heating Degree Days34.5 (Base 65)
Averaged from 52 records on February 13, 2013
WEATHER CONDITIONS BREAKOUT
WIND DIRECTION BREAKOUT
WEATHER BY HOUR - FEBRUARY 13, 2013
[ °C ]   °F
Local TimeTemperatureDewpointHumidityBarometerVisibilityWind DirectionWind SpeedGust SpeedPrecipitationEventsConditions
1:53 AM26.1 °F21.0 °F81 %29.93 in8.0 miCalmClear
2:53 AM25.0 °F21.9 °F88 %29.91 in6.0 miCalmClear
3:53 AM24.1 °F21.0 °F88 %29.89 in5.0 miCalmClear
4:53 AM24.1 °F21.0 °F88 %29.88 in5.0 miCalmClear
5:53 AM24.1 °F19.9 °F84 %29.89 in5.0 miCalmClear
7:27 AM26.6 °F23.0 °F86 %29.80 in2.5 miCalmMostly Cloudy
7:38 AM26.6 °F23.0 °F86 %29.81 in3.0 miCalmMostly Cloudy
7:53 AM26.1 °F23.0 °F88 %29.86 in4.0 miENE (70°)3.5 mphOvercast
8:53 AM28.0 °F24.1 °F85 %29.84 in5.0 miNE (50°)3.5 mphOvercast
9:53 AM30.0 °F25.0 °F82 %29.84 in5.0 miCalmHaze
10:53 AM32.0 °F26.1 °F79 %29.82 in6.0 miCalmHaze
11:53 AM36.0 °F27.0 °F70 %29.79 in7.0 miCalmOvercast
12:53 PM36.0 °F27.0 °F70 %29.77 in10.0 miNNE (30°)3.5 mphOvercast
1:53 PM37.0 °F27.0 °F67 %29.74 in10.0 miNNE (20°)4.6 mphOvercast
2:53 PM36.0 °F27.0 °F70 %29.72 in10.0 miCalmOvercast
3:53 PM35.1 °F27.0 °F72 %29.72 in2.5 miCalm0.00 inSnowLight Snow
4:02 PM33.8 °F28.4 °F81 %29.66 in1.0 miNNE (30°)6.9 mph0.00 inSnowLight Snow
4:09 PM33.8 °F28.4 °F81 %29.66 in0.8 miNE (40°)5.8 mph0.00 inSnowLight Snow
4:18 PM33.8 °F28.4 °F81 %29.65 in1.0 miNNE (20°)6.9 mph0.00 inSnowLight Snow
4:51 PM32.0 °F30.2 °F93 %29.66 in0.8 miNNE (30°)4.6 mph0.02 inSnowLight Snow
4:53 PM32.0 °F30.0 °F92 %29.71 in0.8 miNNE (30°)5.8 mph0.02 inSnowLight Snow
5:07 PM32.0 °F30.2 °F93 %29.66 in0.8 miCalm0.00 inSnowLight Snow
5:16 PM32.0 °F30.2 °F93 %29.66 in1.0 miCalm0.01 inSnowLight Snow
5:23 PM32.0 °F30.2 °F93 %29.66 in1.0 miCalm0.01 inSnowLight Snow
5:26 PM32.0 °F30.2 °F93 %29.65 in1.0 miENE (70°)3.5 mph0.01 inSnowLight Snow
5:35 PM32.0 °F30.2 °F93 %29.66 in0.8 miCalm0.02 inSnowLight Snow
5:43 PM32.0 °F30.2 °F93 %29.66 in0.8 miCalm0.02 inSnowLight Snow
5:53 PM32.0 °F30.0 °F92 %29.72 in1.0 miCalm0.03 inSnowLight Snow
6:13 PM32.0 °F30.2 °F93 %29.66 in0.8 miCalm0.01 inSnowLight Snow
6:18 PM32.0 °F30.2 °F93 %29.66 in0.5 miCalm0.02 inFog-SnowSnow
6:32 PM32.0 °F30.2 °F93 %29.67 in0.8 miCalm0.03 inSnowLight Snow
6:53 PM32.0 °F30.0 °F92 %29.73 in0.8 miCalm0.04 inSnowLight Snow
7:16 PM32.0 °F30.2 °F93 %29.67 in0.8 miCalm0.02 inSnowLight Snow
7:53 PM32.0 °F30.0 °F92 %29.74 in0.8 miCalm0.04 inSnowLight Snow
8:09 PM32.0 °F30.2 °F93 %29.69 in0.8 miCalm0.01 inSnowLight Snow
8:29 PM30.2 °F30.2 °F100 %29.69 in0.8 miCalm0.02 inSnowLight Snow
8:45 PM30.2 °F30.2 °F100 %29.70 in1.0 miCalm0.02 inSnowLight Snow
8:53 PM30.9 °F30.0 °F96 %29.75 in0.8 miCalm0.02 inSnowLight Snow
9:00 PM32.0 °F30.2 °F93 %29.70 in1.0 miCalm0.00 inSnowLight Snow
9:13 PM30.2 °F30.2 °F100 %29.71 in1.0 miCalm0.00 inSnowLight Snow
9:23 PM30.2 °F30.2 °F100 %29.71 in1.0 miCalm0.00 inSnowLight Snow
9:40 PM30.2 °F30.2 °F100 %29.71 in0.8 miCalm0.01 inSnowLight Snow
9:53 PM30.9 °F30.0 °F96 %29.75 in0.8 miCalm0.01 inSnowLight Snow
10:03 PM30.2 °F30.2 °F100 %29.71 in0.5 miCalm0.00 inFog-SnowLight Snow
10:07 PM30.2 °F30.2 °F100 %29.72 in0.8 miCalm0.00 inSnowLight Snow
10:18 PM30.2 °F30.2 °F100 %29.72 in0.5 miCalm0.00 inFog-SnowLight Snow
10:36 PM30.2 °F30.2 °F100 %29.73 in1.0 miCalm0.00 inOvercast
10:48 PM32.0 °F30.2 °F93 %29.73 in2.0 miWNW (290°)3.5 mph0.00 inOvercast
10:53 PM32.0 °F30.0 °F92 %29.78 in3.0 miWNW (290°)4.6 mph0.00 inSnowLight Snow
11:09 PM33.8 °F30.2 °F87 %29.73 in4.0 miWNW (290°)4.6 mph0.00 inOvercast
11:29 PM33.8 °F30.2 °F87 %29.73 in7.0 miCalm0.00 inOvercast
11:53 PM33.1 °F28.9 °F85 %29.78 in9.0 miVariable6.9 mph0.00 inOvercast
Hourly data recorded from KAOO, located miles away from Martinsburg, Pennsylvania







STORIES FROM OUR PARTNERS